This is the latest recevied weather packets stored in our database for station/object eb1ayw-13. If no packets are shown the sender has not sent any weather packets the latest 10 day(s).
| Time | Temp. | Humidity | Pressure | Rain* | Wind** | Luminosity | Snow |
|---|---|---|---|---|---|---|---|
| 1778033869 | 33.33° C | 20% | 1005.6 hPa | - | - | - | - |
| 1778033269 | 32.78° C | 20% | 1005.8 hPa | - | - | - | - |
| 1778032669 | 36.67° C | 18% | 1004.8 hPa | - | - | - | - |
| 1778032069 | 35° C | 19% | 1005.4 hPa | - | - | - | - |
| 1778031469 | 36.11° C | 18% | 1005 hPa | - | - | - | - |
| 1778030869 | 33.33° C | 20% | 1005.7 hPa | - | - | - | - |
| 1778030269 | 35° C | 19% | 1005.5 hPa | - | - | - | - |
| 1778029669 | 39.44° C | 16% | 1004.5 hPa | - | - | - | - |
| 1778029069 | 36.67° C | 18% | 1005.2 hPa | - | - | - | - |
| 1778028469 | 33.89° C | 20% | 1006 hPa | - | - | - | - |
| 1778027869 | 35° C | 20% | 1005.8 hPa | - | - | - | - |
| 1778027269 | 32.22° C | 21% | 1006.5 hPa | - | - | - | - |
| 1778026669 | 33.33° C | 21% | 1006.3 hPa | - | - | - | - |
| 1778026069 | 35.56° C | 20% | 1005.8 hPa | - | - | - | - |
| 1778025469 | 36.11° C | 18% | 1005.5 hPa | - | - | - | - |
| 1778024869 | 34.44° C | 20% | 1006 hPa | - | - | - | - |
| 1778024269 | 36.67° C | 18% | 1005.4 hPa | - | - | - | - |
| 1778023669 | 35.56° C | 19% | 1005.8 hPa | - | - | - | - |
| 1778023069 | 34.44° C | 20% | 1006.2 hPa | - | - | - | - |
| 1778022469 | 36.67° C | 18% | 1005.6 hPa | - | - | - | - |
| 1778021869 | 36.67° C | 19% | 1005.6 hPa | - | - | - | - |
| 1778021269 | 38.89° C | 17% | 1005 hPa | - | - | - | - |
| 1778020669 | 37.22° C | 18% | 1005.6 hPa | - | - | - | - |
| 1778020069 | 38.33° C | 17% | 1005.3 hPa | - | - | - | - |
| 1778019469 | 30.56° C | 24% | 1007.4 hPa | - | - | - | - |
* Rain since midnight (hover to see other rain measurements)
** Current wind speed in m/s (hover to see current wind gust speed)